Simultaneous Nadir Overpasses (SNOs) Predictions

Prediction of SNOs between NOAA-20 and METOP-B Satellite Orbit:

Table of predicted SNOs for the next 14.0 days since TLE Epoch: 5/18/2024
Index Date (NOAA-20) Time (NOAA-20) Lat,Lon (NOAA-20) SZA (NOAA-20 ) Date (METOP-B) Time (METOP-B) Lat,Lon (METOP-B) SZA (METOP-B ) Distance(km) Time Diff (sec)
1 05/31/2024 04:40:01 -74.03, -80.94 127.74 05/31/2024 04:41:07 -74.00, -77.89 127.93 93.51 66
2 05/31/2024 05:30:42 73.81, 86.91 52.01 05/31/2024 05:31:51 73.77, 88.89 51.86 61.59 69
3 05/31/2024 06:21:25 -73.75,-105.64 128.06 05/31/2024 06:22:35 -73.67,-104.01 128.24 51.44 70
4 05/31/2024 07:12:06 73.52, 62.20 51.68 05/31/2024 07:13:18 73.49, 62.90 51.60 22.44 72
5 05/31/2024 08:02:49 -73.47,-130.35 128.39 05/31/2024 08:04:02 -73.39,-129.99 128.50 14.16 73
6 05/31/2024 08:53:32 73.34, 37.25 51.47 05/31/2024 08:54:42 73.35, 37.26 51.47 1.88 70
7 05/31/2024 09:44:16 -73.33,-155.42 128.55 05/31/2024 09:45:24 -73.36,-155.40 128.53 3.33 68
8 05/31/2024 10:35:02 73.35, 11.84 51.48 05/31/2024 10:36:04 73.32, 11.85 51.43 3.44 62
9 05/31/2024 11:25:46 -73.34, 179.17 128.54 05/31/2024 11:26:46 -73.33, 179.19 128.57 2.02 60
10 05/31/2024 12:16:31 73.32, -13.45 51.43 05/31/2024 12:17:25 73.34, -13.45 51.44 2.53 54
11 05/31/2024 13:07:15 -73.31, 153.88 128.59 05/31/2024 13:08:08 -73.29, 153.78 128.61 3.57 53
12 05/31/2024 13:58:01 73.33, -38.86 51.43 05/31/2024 13:58:47 73.31, -38.86 51.40 2.72 46
13 05/31/2024 14:48:44 -73.32, 128.47 128.58 05/31/2024 14:49:28 -73.31, 128.48 128.60 1.24 44
14 05/31/2024 15:39:29 73.30, -64.15 51.39 05/31/2024 15:40:07 73.32, -64.16 51.41 3.23 38
15 05/31/2024 16:30:13 -73.29, 103.18 128.63 05/31/2024 16:30:50 -73.28, 103.07 128.64 3.64 37
16 05/31/2024 17:20:59 73.31, -89.56 51.39 05/31/2024 17:21:29 73.29, -89.57 51.37 2.07 30
17 05/31/2024 18:11:43 -73.30, 77.77 128.62 05/31/2024 18:12:11 -73.30, 77.77 128.64 0.54 28
18 05/31/2024 19:02:29 73.32,-114.97 51.40 05/31/2024 19:02:50 73.31,-114.87 51.37 3.40 21
19 05/31/2024 19:53:13 -73.32, 52.37 128.62 05/31/2024 19:53:32 -73.32, 52.47 128.63 3.21 19
20 05/31/2024 20:43:58 73.29,-140.26 51.35 05/31/2024 20:44:12 73.28,-140.28 51.34 1.56 14
21 05/31/2024 21:34:42 -73.28, 27.07 128.67 05/31/2024 21:34:54 -73.28, 27.06 128.67 0.53 12
22 05/31/2024 22:25:28 73.30,-165.67 51.36 05/31/2024 22:25:33 73.29,-165.58 51.34 2.78 5
23 05/31/2024 23:16:12 -73.30, 1.67 128.66 05/31/2024 23:16:15 -73.30, 1.75 128.66 2.92 3
24 06/01/2024 00:06:57 73.27, 169.04 51.31 06/01/2024 00:06:55 73.26, 169.00 51.30 1.33 2
25 06/01/2024 00:57:41 -73.26, -23.63 128.71 06/01/2024 00:57:37 -73.27, -23.66 128.70 1.21 4
26 06/01/2024 01:48:27 73.28, 143.63 51.31 06/01/2024 01:48:16 73.28, 143.70 51.31 2.26 11
27 06/01/2024 02:39:11 -73.27, -49.04 128.70 06/01/2024 02:38:58 -73.29, -48.96 128.69 2.81 13
28 06/01/2024 03:29:56 73.25, 118.34 51.27 06/01/2024 03:29:38 73.25, 118.29 51.27 1.49 18



Historial Predications of SNOs between NOAA-20 and METOP-B
